Berens Landing, Northwest Territories

2:58 PM MST on February 25, 2017 (GMT -0700)
Fort Simpson

Weather History for CZFS - December, 2012

Change the Weather History Date:

Tuesday, December 18, 2012

  Actual Average (CYFS) Record (CYFS)
Temperature  
Mean Temperature -16 °F -  
Max Temperature -7 °F 0 °F 17 °F (2002)
Min Temperature -26 °F -11 °F -41 °F (2000)
Degree Days  
Heating Degree Days 82    
Moisture  
Dew Point -19 °F    
Average Humidity 78    
Maximum Humidity 81    
Minimum Humidity 62    
Precipitation  
Precipitation 0.00 in - - ()
Sea Level Pressure  
Sea Level Pressure 29.92 in    
Wind  
Wind Speed 2 mph ()    
Max Wind Speed 6 mph    
Max Gust Speed -    
Averages and records for this station are not official NWS values.
T = Trace of Precipitation, MM = Missing Value Source: Averaged Metar Reports

Daily Weather History Graph

Daily Weather History Graph

Search for Another Location

Airport or City:

Trip Planner

Search our weather history database for the weather conditions in past years. The results will help you decide how hot, cold, wet, or windy it might be!

Date:

Astronomy

Dec. 18, 2012 Rise Set
Actual Time 10:24 AM MST 3:39 PM MST
Civil Twilight 9:19 AM MST 4:44 PM MST
Nautical Twilight 8:18 AM MST 5:45 PM MST
Astronomical Twilight 7:23 AM MST 6:40 PM MST
Moon 12:17 PM MST (12/18) No Moon Set
Length of Visible Light 7h 24m
Length of Day
5h 15m
Waxing Crescent, 35% of the Moon is Illuminated
Dec 18
Waxing Crescent
Dec 19
First Quarter
Dec 28
Full
Jan 4
Last Quarter
Jan 11
New

Hourly Weather History & Observations

Time (MST) Temp. Windchill Dew Point Humidity Pressure Visibility Wind Dir Wind Speed Gust Speed Precip Events Conditions
12:00 AM -18.9 °F - -23.4 °F 80% 29.99 in - Calm Calm - N/A   Unknown
1:00 AM -20.2 °F - -25.1 °F 78% 29.99 in - Calm Calm - N/A   Unknown
2:00 AM -22.9 °F - -28.1 °F 77% 29.99 in - South 1.2 mph - N/A   Unknown
3:00 AM -22.9 °F - -28.1 °F 77% 29.99 in - Calm Calm - N/A   Unknown
4:00 AM -24.7 °F - -30.1 °F 76% 29.98 in - ESE 1.2 mph - N/A   Unknown
5:00 AM -26 °F - -31 °F 62% 29.98 in - SE 2.3 mph - -  
5:00 AM -25.8 °F - -31.4 °F 75% 29.98 in - SE 2.3 mph - N/A   Unknown
6:00 AM -21.8 °F - -26.9 °F 77% 29.98 in - ESE 2.3 mph - N/A   Unknown
7:00 AM -20.0 °F -30.7 °F -24.7 °F 79% 29.97 in - SE 3.5 mph - N/A   Unknown
8:00 AM -20.0 °F - -25.1 °F 78% 29.96 in - ESE 2.3 mph - N/A   Unknown
9:00 AM -16.6 °F -29.3 °F -21.5 °F 79% 29.95 in - ESE 4.6 mph - N/A   Unknown
10:00 AM -14.1 °F -23.9 °F -18.8 °F 79% 29.94 in - SE 3.5 mph - N/A   Unknown
11:00 AM -12 °F - -17 °F 68% 29.93 in - ESE 3.5 mph - -  
11:00 AM -12.3 °F -21.9 °F -16.8 °F 80% 29.93 in - ESE 3.5 mph - N/A   Unknown
12:00 PM -11.0 °F -24.6 °F -15.9 °F 79% 29.92 in - SE 5.8 mph - N/A   Unknown
1:00 PM -8.9 °F -22.1 °F -13.9 °F 79% 29.91 in - SE 5.8 mph - N/A   Unknown
2:00 PM -8.1 °F -17.1 °F -13.4 °F 78% 29.90 in - SE 3.5 mph - N/A   Unknown
3:00 PM -7.6 °F -16.5 °F -12.5 °F 79% 29.89 in - SE 3.5 mph - N/A   Unknown
4:00 PM -7.8 °F -20.8 °F -12.5 °F 80% 29.88 in - ESE 5.8 mph - N/A   Unknown
5:00 PM -8 °F - -13 °F 70% 29.87 in - ESE 4.6 mph - -  
5:00 PM -8.3 °F -19.6 °F -12.6 °F 81% 29.87 in - ESE 4.6 mph - N/A   Unknown
6:00 PM -8.5 °F -21.6 °F -13.0 °F 81% 29.86 in - SE 5.8 mph - N/A   Unknown
7:00 PM -8.9 °F -22.1 °F -13.4 °F 81% 29.86 in - ESE 5.8 mph - N/A   Unknown
8:00 PM -8.3 °F -21.4 °F -12.8 °F 81% 29.85 in - ESE 5.8 mph - N/A   Unknown
9:00 PM -8.7 °F - -13.2 °F 81% 29.84 in - ESE 2.3 mph - N/A   Unknown
10:00 PM -8.1 °F - -12.5 °F 81% 29.84 in - ESE 2.3 mph - N/A   Unknown
11:00 PM -8 °F - -12 °F 73% 29.83 in - SE 3.5 mph - -  
11:00 PM -7.8 °F -16.7 °F -12.1 °F 81% 29.83 in - SE 3.5 mph - N/A   Unknown